UAL24A KIAH-LEBL

Flight info

Callsign UAL24A
Flight time N/A
Altitude 33000
Route GUMBY3 LCH DCT LSU DCT GCV DCT MGM DCT HRTWL/N0483F350 Q64 TYI DCT ORF AR9 ZIBUT DCT LARGE DCT JENYY DCT DOVEY/M084F360 NATW 42N060W/M084F350 NATW ATSUR/M084F370 DCT TULTA/N0488F370 DCT NENEM DCT BADRU DCT BAGAS DCT PODUX DCT PPN DCT TURPU DCT GOSVI DCT RONKO DCT RONNY DCT SURCO DCT MARIO DCT POSSY DCT GRAUS
Aircraft B77W/H-SDE1E2E3FGHIJ2J3J4J5M1RWXY/LB1D1

Departure

Time N/A
Airport George Bush Intercontinental Airport (KIAH)

Arrival

Time 2026-05-05 10:25
Airport Josep Tarradellas Barcelona-El Prat Airport (LEBL)
Time Latitude Longitude Altitude Speed Heading
2026-05-05 10:03 41.99522 0.33333 33893 ft 518 kts 124°
2026-05-05 10:03 41.97916 0.37633 32859 ft 514 kts 123°
2026-05-05 10:03 41.96486 0.42067 31556 ft 522 kts 118°
2026-05-05 10:04 41.95265 0.46692 30176 ft 528 kts 116°
2026-05-05 10:04 41.94155 0.51372 29157 ft 517 kts 115°
2026-05-05 10:04 41.93121 0.55869 28493 ft 490 kts 115°
2026-05-05 10:04 41.92117 0.60116 27850 ft 467 kts 116°
2026-05-05 10:05 41.91108 0.64194 27294 ft 463 kts 117°
2026-05-05 10:05 41.90024 0.68370 26696 ft 484 kts 117°
2026-05-05 10:05 41.88873 0.72714 26054 ft 500 kts 117°
2026-05-05 10:05 41.87718 0.77119 25413 ft 499 kts 116°
2026-05-05 10:06 41.86587 0.81481 25109 ft 494 kts 116°
2026-05-05 10:06 41.85445 0.85868 24214 ft 503 kts 116°
2026-05-05 10:06 41.84288 0.90305 23394 ft 503 kts 116°
2026-05-05 10:06 41.83144 0.94698 22783 ft 494 kts 116°
2026-05-05 10:07 41.82016 0.99025 22098 ft 487 kts 115°
2026-05-05 10:07 41.80904 1.03275 21392 ft 481 kts 115°
2026-05-05 10:07 41.79805 1.07458 20818 ft 473 kts 115°
2026-05-05 10:07 41.78717 1.11596 20236 ft 466 kts 115°
2026-05-05 10:08 41.77798 1.15710 19815 ft 454 kts 109°
2026-05-05 10:08 41.77107 1.19691 19051 ft 436 kts 108°
2026-05-05 10:08 41.76452 1.23659 17991 ft 428 kts 107°
2026-05-05 10:08 41.75805 1.27564 17325 ft 441 kts 107°
2026-05-05 10:09 41.75122 1.31628 17287 ft 442 kts 107°
2026-05-05 10:09 41.74449 1.35587 17264 ft 442 kts 107°
2026-05-05 10:09 41.73761 1.39591 17236 ft 436 kts 107°
2026-05-05 10:09 41.73097 1.43454 16796 ft 419 kts 108°
2026-05-05 10:10 41.72442 1.47228 16023 ft 412 kts 108°
2026-05-05 10:10 41.71792 1.50935 15245 ft 408 kts 107°
2026-05-05 10:10 41.71144 1.54616 14529 ft 411 kts 107°
2026-05-05 10:10 41.70488 1.58320 14331 ft 404 kts 107°
2026-05-05 10:11 41.69850 1.61939 14017 ft 397 kts 107°
2026-05-05 10:11 41.69215 1.65527 13584 ft 394 kts 107°
2026-05-05 10:11 41.68589 1.69075 13117 ft 392 kts 107°
2026-05-05 10:11 41.67960 1.72618 12603 ft 391 kts 107°
2026-05-05 10:12 41.67332 1.76147 12187 ft 388 kts 107°
2026-05-05 10:12 41.66708 1.79648 11817 ft 385 kts 107°
2026-05-05 10:12 41.66089 1.83121 11423 ft 382 kts 107°
2026-05-05 10:12 41.65472 1.86569 10991 ft 381 kts 107°
2026-05-05 10:13 41.64856 1.90006 10621 ft 379 kts 107°
2026-05-05 10:13 41.64244 1.93421 10275 ft 377 kts 107°
2026-05-05 10:13 41.63634 1.96818 9949 ft 375 kts 107°
2026-05-05 10:13 41.63032 2.00177 9713 ft 365 kts 107°
2026-05-05 10:14 41.62453 2.03402 9612 ft 349 kts 107°
2026-05-05 10:14 41.61896 2.06498 9510 ft 336 kts 107°
2026-05-05 10:14 41.61356 2.09490 9437 ft 325 kts 107°
2026-05-05 10:14 41.60830 2.12387 9335 ft 316 kts 107°
2026-05-05 10:15 41.60319 2.15201 9285 ft 308 kts 107°
2026-05-05 10:15 41.59808 2.17997 9285 ft 314 kts 108°
2026-05-05 10:15 41.59284 2.20860 9285 ft 315 kts 107°
2026-05-05 10:15 41.58785 2.23608 9049 ft 296 kts 108°
2026-05-05 10:16 41.58307 2.26237 8660 ft 286 kts 107°
2026-05-05 10:16 41.57840 2.28789 8202 ft 280 kts 107°
2026-05-05 10:16 41.57394 2.31233 7818 ft 268 kts 107°
2026-05-05 10:16 41.56960 2.33606 7433 ft 259 kts 107°
2026-05-05 10:17 41.56536 2.35921 6978 ft 253 kts 107°
2026-05-05 10:17 41.55922 2.38087 6475 ft 247 kts 123°
2026-05-05 10:17 41.54882 2.39862 5964 ft 240 kts 141°
2026-05-05 10:17 41.53505 2.41099 5430 ft 241 kts 159°
2026-05-05 10:18 41.51954 2.41900 5149 ft 239 kts 162°
2026-05-05 10:18 41.50402 2.42680 4888 ft 237 kts 162°
2026-05-05 10:18 41.48859 2.43463 4615 ft 237 kts 162°
2026-05-05 10:18 41.47327 2.44148 4457 ft 224 kts 176°
2026-05-05 10:19 41.45872 2.43868 4434 ft 207 kts 200°
2026-05-05 10:19 41.44464 2.43302 4479 ft 226 kts 197°
2026-05-05 10:19 41.43373 2.42919 4484 ft 252 kts 197°
2026-05-05 10:19 41.41769 2.41963 4115 ft 255 kts 221°
2026-05-05 10:20 41.40679 2.40164 3832 ft 252 kts 244°
2026-05-05 10:21 41.36120 2.26635 2660 ft 205 kts 247°
2026-05-05 10:22 41.35537 2.24924 2419 ft 202 kts 248°
2026-05-05 10:22 41.34965 2.23243 2147 ft 196 kts 246°
2026-05-05 10:22 41.34409 2.21610 1875 ft 191 kts 246°
2026-05-05 10:22 41.33877 2.20052 1614 ft 178 kts 245°
2026-05-05 10:23 41.33385 2.18612 1403 ft 165 kts 245°
2026-05-05 10:23 41.32925 2.17263 1172 ft 153 kts 245°
2026-05-05 10:23 41.32509 2.16042 974 ft 142 kts 246°
2026-05-05 10:23 41.32097 2.14833 795 ft 145 kts 246°
2026-05-05 10:24 41.31673 2.13610 534 ft 146 kts 247°
2026-05-05 10:24 41.31251 2.12400 325 ft 144 kts 249°
2026-05-05 10:24 41.30837 2.11193 177 ft 145 kts 249°
2026-05-05 10:25 41.29512 2.07281 27 ft 53 kts 245°
2026-05-05 10:25 41.29433 2.07064 26 ft 21 kts 232°
2026-05-05 10:26 41.29336 2.07072 20 ft 7 kts 157°
2026-05-05 10:26 41.29334 2.07073 23 ft 0 kts 157°
2026-05-05 10:26 41.29329 2.07076 22 ft 0 kts 156°
2026-05-05 10:26 41.29327 2.07077 23 ft 1 kts 156°
2026-05-05 10:27 41.29321 2.07080 20 ft 1 kts 156°
2026-05-05 10:27 41.29311 2.07086 25 ft 3 kts 156°
2026-05-05 10:27 41.29289 2.07108 23 ft 5 kts 129°
2026-05-05 10:27 41.29285 2.07165 24 ft 8 kts 74°
2026-05-05 10:28 41.29316 2.07250 24 ft 12 kts 64°
2026-05-05 10:28 41.29305 2.07359 24 ft 12 kts 147°
2026-05-05 10:28 41.29226 2.07369 28 ft 9 kts 220°
2026-05-05 10:28 41.29196 2.07338 28 ft 4 kts 174°
2026-05-05 10:29 41.29165 2.07359 26 ft 3 kts 154°
2026-05-05 10:29 41.29160 2.07362 27 ft 0 kts 155°